Regional Weather Roundup
Issued by NWS

Home | Current Version | Previous Version | Text Only | Print | Product List | Glossary Off
Versions: 1 2 3 4 5 6 7 8 9 10 11 12 13 14 15 16 17 18 19 20 21 22 23 24 25 26 27 28 29 30 31 32 33 34 35 36 37 38 39 40 41 42 43 44 45 46 47 48 49 50

000
ASUS43 KLMK 180710
RWRKY
KENTUCKY REGIONAL WEATHER ROUNDUP
NATIONAL WEATHER SERVICE LOUISVILLE KY
200 AM EST SAT NOV 18 2017

NOTE "FAIR" INDICATES FEW OR NO CLOUDS BELOW 12,000 FEET
WITH NO SIGNIFICANT WEATHER AND/OR OBSTRUCTIONS TO VISIBILITY.

KYZ001>023-026-027-061>063-070>075-180800-
WESTERN AND SOUTH CENTRAL KENTUCKY

CITY           SKY/WX    TMP DP  RH WIND       PRES   REMARKS
PADUCAH        CLOUDY    67  53  61 S12G25    29.67F
HENDERSON      MOCLDY    62  52  69 S15G23    29.69F
OWENSBORO      CLOUDY    61  47  59 S18       29.70F
HOPKINSVILLE   CLOUDY    63  51  65 S15G25    29.77F
BOWLING GREEN  CLOUDY    61  39  44 S21G32    29.81F
GLASGOW        CLOUDY    60  36  40 S15G23    29.83F
$$

KYZ024-025-028>034-038-045-046-053-180800-
NORTH CENTRAL KENTUCKY

CITY           SKY/WX    TMP DP  RH WIND       PRES   REMARKS
LOUISVILLE/SDF LGT RAIN  60  41  49 S17G28    29.73F
LOUISVILLE/LOU CLOUDY    61  39  44 S18G32    29.74F
FORT KNOX      LGT RAIN  59  39  47 S18G25    29.73F
$$

KYZ035>037-039>044-047>052-055>060-089>105-180800-
NORTHEAST KENTUCKY

CITY           SKY/WX    TMP DP  RH WIND       PRES   REMARKS
LEXINGTON      LGT RAIN  56  38  50 S14       29.81S
COVINGTON      CLOUDY    55  40  56 S16G26    29.70F
FRANKFORT      CLOUDY    59  35  40 S20G30    29.76F
$$

KYZ054-064>069-076>088-106>120-180800-
SOUTHEAST KENTUCKY

CITY           SKY/WX    TMP DP  RH WIND       PRES   REMARKS
JACKSON        CLOUDY    53  33  46 VRB5      29.86F
LONDON         MOCLDY    54  35  48 S3        29.88F
SOMERSET       CLOUDY    55  37  50 S9G16     29.89F
MIDDLESBORO    CLOUDY    56  36  47 S8G23     29.95F
MONTICELLO     CLOUDY    59  40  49 VRB7      29.90S
$$





USA.gov is the U.S. government's official web portal to all federal, state and local government web resources and services.